#timestamp,LO_Frequency,Hit,StdDev 
1685048415.2,286046999.3,N
1685048435.0,286046999.1,N
1685048435.9,286046999.1,N
1685048455.8,286046997.2,Y
1685048475.6,286046998.5,P
1685048495.5,286046998.7,P
1685048515.3,286046998.6,P
1685048535.1,286046998.4,Y
1685048555.9,286047000.9,P
1685048575.7,286047001.2,N
1685048595.5,286046998.2,N
1685048615.4,286047000.9,N
1685048635.2,286047000.8,N
1685048655.1,286047000.6,N
1685048656.0,286047000.6,N
1685048675.8,286046999.7,N
1685048695.6,286047001.0,N
1685048715.5,286046999.9,N
1685048735.3,286046999.9,N
1685048755.1,286046999.0,N
1685048775.9,286046998.6,N
1685048795.7,286046998.1,N
1685048815.6,286047000.5,N
1685048835.4,286047000.5,N
1685048855.2,286047000.3,N
1685048875.1,286046999.9,N
1685048876.0,286046999.9,N
1685048895.8,286047000.4,N
1685048915.6,286046999.8,N
1685048935.5,286047000.6,N
1685048955.3,286046998.5,N
1685048975.2,286046998.1,N
1685048995.9,286046998.1,N
1685049015.7,286046998.5,N
1685049035.6,286047000.8,N
1685049055.4,286047000.7,N
1685049075.2,286047000.4,N
1685049095.1,286047000.3,N
1685049096.0,286047000.3,N
1685049115.8,286047000.1,N
1685049135.7,286047000.3,N
1685049155.5,286047000.4,N
1685049175.3,286047001.2,N
1685049195.2,286046998.6,N
1685049215.0,286046998.7,N
1685049215.9,286046998.7,N
1685049235.8,286046996.9,Y
1685049255.6,286046996.9,P
1685049275.4,286046998.3,N
1685049295.3,286046998.7,N
1685049315.1,286046999.4,N
1685049316.0,286046999.4,N
1685049335.8,286046996.6,Y
1685049355.7,286046998.2,P
1685049375.5,286046998.5,P
1685049395.4,286047000.7,P
1685049415.2,286046998.3,N
1685049435.0,286046999.5,N
1685049435.9,286046999.5,N
1685049455.8,286046996.6,Y
1685049475.6,286046999.0,P
1685049495.4,286047000.3,P
1685049515.3,286047002.4,P
1685049535.1,286047001.4,N
1685049555.9,286047001.4,N
1685049575.7,286047001.5,N
1685049595.5,286047003.5,N
1685049615.4,286047003.8,N
1685049635.2,286047003.4,N
1685049655.0,286047003.1,N
1685049655.9,286047003.1,N
1685049675.8,286047005.5,Y
1685049695.6,286047001.4,P
1685049715.5,286047002.1,P
1685049735.3,286047001.7,P
1685049755.1,286047004.1,Y
1685049775.9,286047001.3,P
1685049795.7,286047001.7,P
1685049815.6,286047001.7,P
1685049835.4,286047004.2,Y
1685049855.2,286046999.9,P
1685049875.1,286047002.6,N
1685049876.0,286047002.6,N
1685049895.8,286047002.3,N
1685049915.6,286047004.3,Y
1685049935.5,286046999.7,P
1685049955.3,286046999.9,N
1685049975.2,286047002.8,N
1685049995.9,286047000.1,N
1685050015.7,286047002.7,N
1685050035.6,286047002.2,N
1685050055.4,286047002.3,N
1685050075.2,286047001.9,N
1685050095.1,286047004.4,Y
1685050096.0,286047004.4,P
1685050115.8,286046999.7,N
1685050135.7,286047002.6,N
1685050155.5,286047002.1,N
1685050175.3,286047002.0,N
1685050195.2,286047002.8,N
1685050215.0,286047002.8,N
1685050215.9,286047002.8,N
1685050235.8,286047002.7,N
1685050255.6,286046999.7,N
1685050275.4,286047000.2,N
1685050295.3,286046999.8,N
1685050315.1,286046999.7,N
1685050365.9,286047002.4,E
1685050375.8,286047000.6,N
1685050395.6,286046999.0,P
1685050415.5,286046998.6,N
1685050435.3,286046999.0,N
1685050455.1,286046998.8,N
1685050475.9,286047001.1,N
1685050495.7,286047001.2,N
1685050515.6,286046999.5,N
1685050535.4,286046998.8,N
1685050555.2,286046998.8,N
1685050575.1,286046998.8,N
1685050576.0,286046998.8,N
1685050595.8,286046998.2,N
1685050615.6,286046998.4,N
1685050635.5,286046998.7,N
1685050655.3,286046998.5,N
1685050675.2,286047000.8,N
1685050695.9,286046998.8,N
1685050715.7,286046998.7,N
1685050735.6,286047001.2,N
1685050755.4,286046998.6,N
1685050775.2,286047000.8,N
1685050795.1,286046998.5,N
1685050796.0,286046998.5,N
1685050815.8,286047000.7,N
1685050835.7,286047000.6,N
1685050855.5,286047000.6,N
1685050875.3,286046999.9,N
1685050895.2,286047000.3,N
1685050915.0,286047000.1,N
1685050915.9,286047000.1,N
1685050935.8,286047001.5,N
1685050955.6,286047002.7,N
1685050975.4,286047002.5,N
1685050995.3,286047002.3,N
1685051015.1,286047000.0,N
1685051035.8,286047002.4,N
1685051055.7,286047002.1,N
1685051075.5,286047002.7,N
1685051095.4,286047004.4,N
1685051115.2,286047002.8,N
1685051135.0,286047002.3,N
1685051135.9,286047002.3,N
1685051155.8,286046999.8,N
1685051175.6,286047000.2,N
1685051195.5,286047000.2,N
1685051215.3,286047002.5,N
1685051235.1,286047002.0,N
1685051255.9,286047002.4,N
1685051275.7,286047002.6,N
1685051295.6,286047000.5,N
1685051315.4,286047000.1,N
1685051335.2,286047002.8,N
1685051355.1,286047001.9,N
1685051356.0,286047001.9,N
1685051375.8,286047001.6,N
1685051395.6,286046999.9,N
1685051415.5,286047000.3,N
1685051435.3,286046999.7,N
1685051455.2,286047002.8,N
1685051475.9,286047001.6,N
1685051495.7,286047002.1,N
1685051515.6,286047001.7,N
1685051535.4,286047001.3,N
1685051555.2,286047004.4,Y
1685051575.1,286047000.0,P
1685051576.0,286047000.0,N
1685051595.8,286047000.4,N
1685051615.7,286047002.4,Y
1685051635.5,286047000.6,P
1685051655.3,286047001.2,P
1685051675.2,286046998.3,P
1685051695.0,286046998.2,N
1685051695.9,286046998.2,N
1685051715.8,286046999.5,N
1685051735.6,286046998.8,N
1685051755.4,286046998.6,N
1685051775.3,286046998.5,N
1685051795.1,286046999.4,N
1685051815.8,286047001.2,N
1685051835.7,286046998.5,N
1685051855.5,286047000.0,N
1685051875.4,286047001.0,N
1685051895.2,286047001.2,N
1685051915.0,286046999.9,N
1685051915.9,286046999.9,N
1685051935.8,286047000.9,N
1685051955.6,286047000.7,N
1685051975.4,286046998.6,N
1685051995.3,286046999.3,N
